Weather History for KORB - July, 2013

Change the Weather History Date:

Thursday, July 18, 2013

  Actual Average Record
Temperature  
Mean Temperature 74 °F -  
Max Temperature 87 °F 74 °F 93 °F (2011)
Min Temperature 60 °F 52 °F 42 °F (2000)
Cooling Degree Days 8    
Growing Degree Days 24 (Base 50)    
Moisture  
Dew Point 64 °F    
Average Humidity 82    
Maximum Humidity 94    
Minimum Humidity 55    
Precipitation  
Precipitation 1.16 in - - ()
Sea Level Pressure  
Sea Level Pressure 29.83 in    
Wind  
Wind Speed 1 mph (South)    
Max Wind Speed 18 mph    
Max Gust Speed 37 mph    
Visibility 9 miles    
Events Rain , Thunderstorm    
Averages and records for this station are not official NWS values.
T = Trace of Precipitation, MM = Missing Value Source: NWS Daily Summary

Daily Weather History Graph

Daily Weather History Graph

Search for Another Location

Airport or City:

Trip Planner

Search our weather history database for the weather conditions in past years. The results will help you decide how hot, cold, wet, or windy it might be!

Date:

Astronomy

Jul. 18, 2013 Rise Set
Actual Time 5:31 AM CDT 9:03 PM CDT
Civil Twilight 4:52 AM CDT 9:42 PM CDT
Nautical Twilight 4:00 AM CDT 10:33 PM CDT
Astronomical Twilight 2:49 AM CDT 11:43 PM CDT
Moon 4:58 PM CDT (7/18) 1:26 AM CDT (7/18)
Length of Visible Light 16h 50m
Length of Day
15h 32m
Waxing Gibbous, 77% of the Moon is Illuminated
Jul 18
Waxing Gibbous
Jul 22
Full
Jul 29
Last Quarter
Aug 6
New
Aug 14
First Quarter

Hourly Weather History & Observations

Time (CDT) Temp. Heat Index Dew Point Humidity Pressure Visibility Wind Dir Wind Speed Gust Speed Precip Events Conditions
12:13 AM 64.4 °F - 62.6 °F 94% 30.10 in 10.0 mi Calm Calm - N/A   Light Drizzle
12:33 AM 64.4 °F - 60.8 °F 88% 30.08 in 7.0 mi Calm Calm - N/A   Scattered Clouds
12:53 AM 64.4 °F - 60.8 °F 88% 30.09 in 10.0 mi Calm Calm - N/A   Clear
1:14 AM 64.4 °F - 60.8 °F 88% 30.08 in 7.0 mi Calm Calm - N/A   Clear
1:33 AM 64.4 °F - 60.8 °F 88% 30.07 in 10.0 mi Calm Calm - N/A   Scattered Clouds
1:53 AM 62.6 °F - 60.8 °F 94% 30.07 in 10.0 mi Calm Calm - N/A   Scattered Clouds
2:15 AM 62.6 °F - 60.8 °F 94% 30.07 in 10.0 mi Calm Calm - N/A   Scattered Clouds
2:33 AM 62.6 °F - 59.0 °F 88% 30.06 in 2.5 mi Calm Calm - 0.11 in Rain Light Rain
2:53 AM 60.8 °F - 57.2 °F 88% 30.05 in 10.0 mi Calm Calm - 0.11 in   Scattered Clouds
3:13 AM 60.8 °F - 57.2 °F 88% 30.04 in 10.0 mi Calm Calm - N/A   Clear
3:33 AM 60.8 °F - 55.4 °F 82% 30.03 in 10.0 mi Calm Calm - N/A   Clear
3:53 AM 60.8 °F - 57.2 °F 88% 30.02 in 10.0 mi Calm Calm - N/A   Clear
4:13 AM 60.8 °F - 57.2 °F 88% 30.01 in 10.0 mi Calm Calm - N/A   Clear
4:33 AM 60.8 °F - 57.2 °F 88% 30.00 in 7.0 mi Calm Calm - N/A   Scattered Clouds
4:53 AM 62.6 °F - 60.8 °F 94% 29.99 in 10.0 mi Calm Calm - N/A   Clear
5:13 AM 62.6 °F - 59.0 °F 88% 29.98 in 7.0 mi Calm Calm - N/A   Clear
5:33 AM 62.6 °F - 60.8 °F 94% 29.98 in 5.0 mi Calm Calm - N/A   Clear
5:53 AM 62.6 °F - 60.8 °F 94% 29.98 in 7.0 mi Calm Calm - N/A   Clear
6:13 AM 62.6 °F - 60.8 °F 94% 29.97 in 10.0 mi Calm Calm - N/A   Clear
6:33 AM 62.6 °F - 60.8 °F 94% 29.97 in 10.0 mi NNE 3.5 mph - N/A   Mostly Cloudy
6:53 AM 62.6 °F - 60.8 °F 94% 29.97 in 4.0 mi Calm Calm - 0.02 in Rain Heavy Rain
7:13 AM 62.6 °F - 60.8 °F 94% 29.96 in 10.0 mi East 3.5 mph - 0.01 in Rain , Thunderstorm Rain
7:33 AM 62.6 °F - 59.0 °F 88% 29.94 in 10.0 mi East 4.6 mph - 0.01 in Thunderstorm Scattered Clouds
7:55 AM 62.6 °F - 60.8 °F 94% 29.91 in 10.0 mi ESE 4.6 mph - 0.01 in Thunderstorm Clear
8:13 AM 62.6 °F - 60.8 °F 94% 29.91 in 10.0 mi ESE 4.6 mph - N/A Thunderstorm Clear
8:33 AM 64.4 °F - 60.8 °F 88% 29.89 in 10.0 mi ESE 4.6 mph - N/A Thunderstorm Thunderstorm
8:53 AM 64.4 °F - 62.6 °F 94% 29.89 in 10.0 mi Calm Calm - N/A   Clear
9:13 AM 66.2 °F - 62.6 °F 88% 29.90 in 10.0 mi Calm Calm - N/A   Scattered Clouds
9:33 AM 64.4 °F - 62.6 °F 94% 29.90 in 10.0 mi Calm Calm - N/A   Mostly Cloudy
9:53 AM 64.4 °F - 62.6 °F 94% 29.89 in 10.0 mi Calm Calm - N/A   Scattered Clouds
10:13 AM 66.2 °F - 62.6 °F 88% 29.86 in 10.0 mi ESE 3.5 mph - N/A   Scattered Clouds
10:33 AM 69.8 °F - 64.4 °F 83% 29.85 in 10.0 mi East 3.5 mph - N/A   Clear
10:53 AM 69.8 °F - 64.4 °F 83% 29.86 in 10.0 mi Calm Calm - N/A   Clear
11:13 AM 69.8 °F - 64.4 °F 83% 29.86 in 10.0 mi Calm Calm - N/A   Clear
11:33 AM 69.8 °F - 64.4 °F 83% 29.86 in 10.0 mi Calm Calm - N/A   Clear
11:53 AM 69.8 °F - 64.4 °F 83% 29.85 in 10.0 mi Calm Calm - N/A   Scattered Clouds
12:13 PM 73.4 °F - 66.2 °F 78% 29.82 in 10.0 mi SE 3.5 mph - N/A   Clear
12:33 PM 75.2 °F - 68.0 °F 78% 29.82 in 10.0 mi SSW 3.5 mph - N/A   Scattered Clouds
12:53 PM 75.2 °F - 68.0 °F 78% 29.83 in 10.0 mi NW 3.5 mph - N/A   Scattered Clouds
1:13 PM 75.2 °F - 68.0 °F 78% 29.81 in 10.0 mi Calm Calm - N/A   Clear
1:33 PM 77.0 °F - 68.0 °F 74% 29.78 in 10.0 mi Calm Calm - N/A   Clear
1:53 PM 78.8 °F - 69.8 °F 74% 29.76 in 10.0 mi Calm Calm - N/A   Clear
2:13 PM 80.6 °F 83.9 °F 69.8 °F 70% 29.75 in 10.0 mi Calm Calm - N/A   Clear
2:33 PM 82.4 °F 87.2 °F 71.6 °F 70% 29.74 in 10.0 mi SW 4.6 mph - N/A   Clear
2:53 PM 84.2 °F 89.6 °F 71.6 °F 66% 29.72 in 10.0 mi SW 4.6 mph - N/A   Clear
3:13 PM 86.0 °F 91.8 °F 71.6 °F 62% 29.71 in 10.0 mi SW 6.9 mph - N/A   Clear
3:33 PM 86.0 °F 91.8 °F 71.6 °F 62% 29.71 in 10.0 mi SW 12.7 mph 18.4 mph N/A   Clear
3:53 PM 87.8 °F 92.6 °F 69.8 °F 55% 29.70 in 10.0 mi SSW 6.9 mph - N/A   Clear
4:13 PM 86.0 °F 90.4 °F 69.8 °F 58% 29.70 in 10.0 mi SSW 8.1 mph 16.1 mph N/A   Clear
4:33 PM 87.8 °F 92.6 °F 69.8 °F 55% 29.69 in 10.0 mi SSW 6.9 mph - N/A   Clear
4:53 PM 87.8 °F 92.6 °F 69.8 °F 55% 29.67 in 10.0 mi SSW 9.2 mph - N/A   Clear
5:14 PM 86.0 °F 90.4 °F 69.8 °F 58% 29.66 in 10.0 mi WSW 8.1 mph - N/A Thunderstorm Clear
5:33 PM 84.2 °F 86.6 °F 66.2 °F 55% 29.67 in 10.0 mi SW 8.1 mph 21.9 mph N/A Thunderstorm Thunderstorm
5:53 PM 84.2 °F 87.3 °F 68.0 °F 58% 29.67 in 10.0 mi West 8.1 mph - N/A Thunderstorm Thunderstorm
6:13 PM 71.6 °F - 60.8 °F 69% 29.68 in 10.0 mi South 5.8 mph 18.4 mph N/A Thunderstorm Thunderstorm
6:33 PM 73.4 °F - 62.6 °F 69% 29.66 in 10.0 mi North 3.5 mph - N/A Rain , Thunderstorm Light Thunderstorms and Rain
6:53 PM 71.6 °F - 64.4 °F 78% 29.65 in 10.0 mi Calm Calm - N/A   Scattered Clouds
7:13 PM 69.8 °F - 64.4 °F 83% 29.66 in 10.0 mi Calm Calm - N/A Rain , Thunderstorm Light Thunderstorms and Rain
7:33 PM 69.8 °F - 64.4 °F 83% 29.67 in 2.5 mi WNW 18.4 mph 36.8 mph 0.24 in Rain , Thunderstorm Heavy Thunderstorms and Rain
7:53 PM 66.2 °F - 60.8 °F 83% 29.66 in 7.0 mi Calm Calm - 0.64 in Rain , Thunderstorm Thunderstorms and Rain
8:13 PM 69.8 °F - 64.4 °F 83% 29.65 in 10.0 mi SSW 6.9 mph - 0.36 in Rain , Thunderstorm Light Thunderstorms and Rain
8:33 PM 69.8 °F - 66.2 °F 88% 29.64 in 10.0 mi Calm Calm - 0.37 in Rain Light Rain
8:53 PM 69.8 °F - 66.2 °F 88% 29.64 in 10.0 mi Calm Calm - 0.37 in   Mostly Cloudy
9:13 PM 69.8 °F - 66.2 °F 88% 29.64 in 5.0 mi Calm Calm - N/A   Scattered Clouds
9:33 PM 68.0 °F - 66.2 °F 94% 29.64 in 10.0 mi Calm Calm - N/A   Clear
9:53 PM 68.0 °F - 64.4 °F 88% 29.65 in 7.0 mi Calm Calm - N/A   Scattered Clouds
10:13 PM 68.0 °F - 64.4 °F 88% 29.65 in 7.0 mi Calm Calm - N/A   Scattered Clouds
10:33 PM 68.0 °F - 64.4 °F 88% 29.64 in 5.0 mi Calm Calm - 0.01 in Rain Light Rain
10:53 PM 68.0 °F - 66.2 °F 94% 29.66 in 10.0 mi South 3.5 mph - 0.01 in   Scattered Clouds
11:13 PM 69.8 °F - 66.2 °F 88% 29.66 in 7.0 mi Calm Calm - N/A   Mostly Cloudy
11:33 PM 68.0 °F - 64.4 °F 88% 29.65 in 7.0 mi Calm Calm - N/A   Mostly Cloudy
11:53 PM 68.0 °F - 64.4 °F 88% 29.65 in 4.0 mi Calm Calm - N/A   Scattered Clouds